• In Uzbekistan
  • List of Countries
  • For 7 days
  • Water Temperature
  • Weather Map
  • Weather Widgets
  • user-avatar
    Login

    Hourly Weather Hanoi

    Today, 9 December, Monday

    Time Temperature Precipitation Wind Pressure Humidity
    00:00 +14°C° 0 mm 0 mps 766 mmHg 45%
    01:00 +14°C° 0 mm 0 mps 766 mmHg 48%
    02:00 +14°C° 0 mm 0 mps 766 mmHg 49%
    03:00 +14°C° 0 mm 1 mps 766 mmHg 50%
    04:00 +14°C° 0 mm 1 mps 766 mmHg 51%
    05:00 +14°C° 0 mm 1 mps 766 mmHg 52%
    06:00 +13°C° 0 mm 2 mps 767 mmHg 53%
    07:00 +14°C° 0 mm 1 mps 767 mmHg 55%
    08:00 +16°C° 0 mm 2 mps 767 mmHg 49%
    09:00 +17°C° 0 mm 2 mps 767 mmHg 43%
    10:00 +19°C° 0 mm 3 mps 767 mmHg 38%
    11:00 +21°C° 0 mm 3 mps 766 mmHg 34%
    12:00 +23°C° 0 mm 2 mps 765 mmHg 30%
    13:00 +24°C° 0 mm 2 mps 764 mmHg 27%
    14:00 +24°C° 0 mm 2 mps 763 mmHg 26%
    15:00 +24°C° 0 mm 1 mps 763 mmHg 26%
    16:00 +24°C° 0 mm 1 mps 762 mmHg 25%
    17:00 +22°C° 0 mm 1 mps 763 mmHg 29%
    18:00 +21°C° 0 mm 1 mps 763 mmHg 33%
    19:00 +19°C° 0 mm 1 mps 763 mmHg 36%
    20:00 +19°C° 0 mm 1 mps 763 mmHg 40%
    21:00 +18°C° 0 mm 1 mps 764 mmHg 44%
    22:00 +16°C° 0 mm 1 mps 764 mmHg 48%
    23:00 +16°C° 0 mm 1 mps 764 mmHg 51%

    Tomorrow, 10 December, Tuesday

    Time Temperature Precipitation Wind Pressure Humidity
    00:00 +15°C° 0 mm 1 mps 764 mmHg 53%
    01:00 +14°C° 0 mm 0 mps 764 mmHg 55%
    02:00 +15°C° 0 mm 1 mps 764 mmHg 56%
    03:00 +14°C° 0 mm 1 mps 764 mmHg 57%
    04:00 +14°C° 0 mm 1 mps 763 mmHg 58%
    05:00 +14°C° 0 mm 1 mps 764 mmHg 58%
    06:00 +13°C° 0 mm 1 mps 764 mmHg 59%
    07:00 +13°C° 0 mm 2 mps 764 mmHg 60%
    08:00 +15°C° 0 mm 2 mps 764 mmHg 55%
    09:00 +17°C° 0 mm 2 mps 764 mmHg 49%
    10:00 +19°C° 0 mm 2 mps 764 mmHg 43%
    11:00 +20°C° 0 mm 2 mps 763 mmHg 39%
    12:00 +23°C° 0 mm 2 mps 762 mmHg 34%
    13:00 +24°C° 0 mm 2 mps 761 mmHg 30%
    14:00 +24°C° 0 mm 1 mps 761 mmHg 29%
    15:00 +24°C° 0 mm 1 mps 761 mmHg 28%
    16:00 +24°C° 0 mm 1 mps 760 mmHg 27%
    17:00 +23°C° 0 mm 1 mps 761 mmHg 30%
    18:00 +22°C° 0 mm 1 mps 762 mmHg 33%
    19:00 +18°C° 0 mm 0 mps 762 mmHg 37%
    20:00 +19°C° 0 mm 1 mps 762 mmHg 42%
    21:00 +19°C° 0 mm 1 mps 763 mmHg 47%
    22:00 +17°C° 0 mm 2 mps 763 mmHg 52%
    23:00 +16°C° 0 mm 1 mps 763 mmHg 54%

    Day after tomorrow, 11 December, Wednesday

    Time Temperature Precipitation Wind Pressure Humidity
    00:00 +16°C° 0 mm 1 mps 763 mmHg 55%
    01:00 +15°C° 0 mm 0 mps 763 mmHg 56%
    02:00 +15°C° 0 mm 1 mps 763 mmHg 57%
    03:00 +15°C° 0 mm 1 mps 763 mmHg 58%
    04:00 +14°C° 0 mm 2 mps 763 mmHg 59%
    05:00 +14°C° 0 mm 2 mps 763 mmHg 60%
    06:00 +14°C° 0 mm 2 mps 764 mmHg 61%
    07:00 +14°C° 0 mm 2 mps 764 mmHg 62%
    08:00 +16°C° 0 mm 2 mps 764 mmHg 56%
    09:00 +18°C° 0 mm 3 mps 764 mmHg 49%
    10:00 +20°C° 0 mm 3 mps 764 mmHg 43%
    11:00 +21°C° 0 mm 3 mps 763 mmHg 38%
    12:00 +24°C° 0 mm 2 mps 762 mmHg 33%
    13:00 +25°C° 0 mm 2 mps 762 mmHg 28%
    14:00 +25°C° 0 mm 2 mps 761 mmHg 28%
    15:00 +25°C° 0 mm 1 mps 761 mmHg 28%
    16:00 +25°C° 0 mm 1 mps 760 mmHg 27%
    17:00 +24°C° 0 mm 1 mps 761 mmHg 30%
    18:00 +20°C° 0 mm 0 mps 761 mmHg 34%
    19:00 +19°C° 0 mm 0 mps 762 mmHg 37%
    20:00 +18°C° 0 mm 0 mps 762 mmHg 41%
    21:00 +20°C° 0 mm 1 mps 763 mmHg 45%
    22:00 +19°C° 0 mm 1 mps 763 mmHg 49%
    23:00 +18°C° 0 mm 1 mps 763 mmHg 51%

    12 December, Thursday

    Time Temperature Precipitation Wind Pressure Humidity
    00:00 +18°C° 0 mm 1 mps 763 mmHg 54%
    01:00 +15°C° 0 mm 0 mps 763 mmHg 57%
    02:00 +16°C° 0 mm 1 mps 763 mmHg 57%
    03:00 +16°C° 0 mm 1 mps 763 mmHg 58%
    04:00 +15°C° 0 mm 1 mps 763 mmHg 59%
    05:00 +15°C° 0 mm 1 mps 763 mmHg 60%
    06:00 +15°C° 0 mm 2 mps 764 mmHg 61%
    07:00 +15°C° 0 mm 2 mps 764 mmHg 61%
    08:00 +17°C° 0 mm 2 mps 764 mmHg 55%
    09:00 +19°C° 0 mm 2 mps 764 mmHg 49%
    10:00 +21°C° 0 mm 2 mps 764 mmHg 43%
    11:00 +23°C° 0 mm 2 mps 764 mmHg 39%
    12:00 +25°C° 0 mm 1 mps 763 mmHg 35%
    13:00 +26°C° 0 mm 1 mps 762 mmHg 31%
    14:00 +26°C° 0 mm 1 mps 762 mmHg 32%
    15:00 +26°C° 0 mm 1 mps 761 mmHg 32%
    16:00 +24°C° 0 mm 0 mps 761 mmHg 33%
    17:00 +24°C° 0 mm 1 mps 761 mmHg 39%
    18:00 +23°C° 0 mm 2 mps 762 mmHg 46%
    19:00 +21°C° 0 mm 2 mps 762 mmHg 53%
    20:00 +20°C° 0 mm 2 mps 763 mmHg 61%
    21:00 +19°C° 0 mm 2 mps 763 mmHg 70%
    22:00 +19°C° 0 mm 2 mps 764 mmHg 78%
    23:00 +19°C° 0 mm 1 mps 763 mmHg 79%

    13 December, Friday

    Time Temperature Precipitation Wind Pressure Humidity
    00:00 +19°C° 0 mm 1 mps 763 mmHg 80%
    01:00 +17°C° 0 mm 0 mps 763 mmHg 81%
    02:00 +16°C° 0 mm 0 mps 763 mmHg 81%
    03:00 +16°C° 0 mm 0 mps 763 mmHg 81%
    04:00 +16°C° 0 mm 0 mps 763 mmHg 81%
    05:00 +16°C° 0 mm 1 mps 763 mmHg 80%
    06:00 +16°C° 0 mm 1 mps 764 mmHg 80%
    07:00 +16°C° 0 mm 1 mps 764 mmHg 79%
    08:00 +19°C° 0 mm 1 mps 765 mmHg 73%
    09:00 +21°C° 0 mm 1 mps 765 mmHg 67%
    10:00 +22°C° 0 mm 1 mps 765 mmHg 60%
    11:00 +24°C° 0 mm 1 mps 764 mmHg 56%
    12:00 +25°C° 0 mm 1 mps 763 mmHg 51%
    13:00 +24°C° 0 mm 0 mps 762 mmHg 46%
    14:00 +26°C° 0 mm 1 mps 762 mmHg 46%
    15:00 +26°C° 0 mm 1 mps 762 mmHg 45%
    16:00 +26°C° 0 mm 1 mps 761 mmHg 44%
    17:00 +25°C° 0 mm 1 mps 762 mmHg 50%
    18:00 +24°C° 0 mm 1 mps 762 mmHg 56%
    19:00 +23°C° 0 mm 1 mps 763 mmHg 61%
    20:00 +22°C° 0 mm 1 mps 763 mmHg 68%
    21:00 +20°C° 0 mm 2 mps 763 mmHg 74%
    22:00 +20°C° 0 mm 2 mps 764 mmHg 80%
    23:00 +20°C° 0 mm 1 mps 763 mmHg 83%

    14 December, Saturday

    Time Temperature Precipitation Wind Pressure Humidity
    00:00 +20°C° 0 mm 1 mps 763 mmHg 86%
    01:00 +20°C° 0 mm 1 mps 763 mmHg 89%
    02:00 +19°C° 0 mm 1 mps 763 mmHg 89%
    03:00 +17°C° 0 mm 0 mps 763 mmHg 90%
    04:00 +17°C° 0 mm 0 mps 763 mmHg 90%
    05:00 +19°C° 0 mm 1 mps 763 mmHg 88%
    06:00 +19°C° 0 mm 1 mps 763 mmHg 86%
    07:00 +19°C° 0 mm 1 mps 764 mmHg 84%
    08:00 +20°C° 0 mm 1 mps 764 mmHg 80%
    09:00 +21°C° 0 mm 1 mps 764 mmHg 77%
    10:00 +21°C° 0 mm 2 mps 764 mmHg 74%
    11:00 +23°C° 0 mm 1 mps 764 mmHg 70%
    12:00 +24°C° 0 mm 1 mps 763 mmHg 66%
    13:00 +23°C° 0 mm 0 mps 762 mmHg 62%
    14:00 +25°C° 0 mm 1 mps 762 mmHg 64%
    15:00 +25°C° 0 mm 1 mps 761 mmHg 65%
    16:00 +25°C° 0 mm 2 mps 761 mmHg 66%
    17:00 +24°C° 0 mm 2 mps 761 mmHg 71%
    18:00 +23°C° 0 mm 1 mps 762 mmHg 75%
    19:00 +22°C° 0 mm 1 mps 762 mmHg 79%
    20:00 +22°C° 0 mm 1 mps 762 mmHg 80%
    21:00 +22°C° 0 mm 1 mps 763 mmHg 81%
    22:00 +22°C° 0 mm 1 mps 763 mmHg 82%
    23:00 +22°C° 0 mm 1 mps 763 mmHg 83%
    Show more